Location: Arboyeti
(42.1122°N, 44.6017°E)
Time: 16:56:04
(UTC+00:00)

ISS - Visible Passes

Search period start: 26 September 2021 00:00
Search period end: 06 October 2021 00:00
Orbit: 417 x 423 km, 51.6° (Epoch: 26 September)

Date Brightness Start Highest point End Pass type
(mag) Time Alt. Az. Time Alt. Az. Time Alt. Az.
26 Sep -1.3 15:56:52 10° NW 15:59:04 16° N 16:01:16 10° NE visible
26 Sep -0.5 17:33:51 10° NW 17:34:21 13° NNW 17:34:21 13° NNW visible
27 Sep -1.6 16:46:41 10° NW 16:48:51 20° N 16:48:51 20° N visible
28 Sep -1.6 15:59:30 10° NW 16:01:54 18° N 16:03:25 14° NE visible
28 Sep -0.4 17:36:02 10° NW 17:36:24 12° NW 17:36:24 12° NW visible
29 Sep -1.5 15:12:17 10° NW 15:14:32 16° N 15:16:47 10° NE visible
29 Sep -2.0 16:48:59 10° NW 16:51:03 27° NNW 16:51:03 27° NNW visible
30 Sep -2.3 16:02:00 10° NW 16:04:53 26° NNE 16:05:47 23° NE visible
30 Sep -0.2 17:38:36 10° WNW 17:38:46 11° WNW 17:38:46 11° WNW visible
01 Oct -1.9 15:15:03 10° NW 15:17:41 21° NNE 15:20:21 10° ENE visible
01 Oct -2.1 16:51:35 10° NW 16:53:37 34° NW 16:53:37 34° NW visible
02 Oct -3.4 16:04:39 10° NW 16:07:57 50° NNE 16:08:34 43° ENE visible
03 Oct -2.8 15:17:49 10° NW 15:20:57 35° NNE 15:23:40 13° E visible
03 Oct -1.7 16:54:41 10° WNW 16:56:40 27° W 16:56:40 27° W visible
04 Oct -3.4 16:07:42 10° WNW 16:11:02 59° SW 16:11:55 41° SSE visible
05 Oct -3.8 15:20:53 10° NW 15:24:15 83° NNE 15:27:20 12° ESE visible
05 Oct -0.8 16:59:15 10° WSW 17:00:23 12° SW 17:00:23 12° SW visible
